Flag for U.S.A. Weather past 2 weeks in Cape Canaveral, Florida, U.S.A.

Now
77 °F

Clear.


Feels Like: 79 °F
Forecast: 76 / 87 °F
Wind: 6 mph from Southwest

Location: Cape Kennedy

Current Time: Jul 1, 2015 at 3:35:42 AM

Latest Report: Jul 1, 2015 at 2:58 AM


Visibility: 10 mi

Pressure: 30.11 "Hg

Humidity: 81%

Dew point: 71 °F

Location of Cape CanaveralLocation

Historic Weather in Cape Canaveral — Graph

°F

Cape Canaveral temperature yesterday

Maximum temperature yesterday: 94 °F (at 3:58 PM)
Minimum temperature yesterday: 74 °F (at 12:58 AM)
Average temperature yesterday: 82 °F

Past Weeks' High & Low Weather Summary

 TemperatureHumidityPressure
High96 °F (Jun 22, 2:58 PM)100% (Jun 16, 5:58 AM)30.18 "Hg (Jun 16, 5:58 AM)
Low72 °F (Jun 16, 6:03 AM)44% (Jun 22, 4:58 PM)29.98 "Hg (Jun 27, 4:58 PM)
Average82 °F78%30.09 "Hg
* Reported Jun 16 1:58 AM — Jul 1 1:58 AM, Cape Canaveral, Weather by CustomWeather, © 2015

Note: Actual official high and low records may vary slightly from our data, if they occured in-between our weather recording intervals... More about our weather records

Advertising

Cape Canaveral weather history for previous 24 hours

 ConditionsComfort  
Time TempWeatherWind HumidityBarometerVisibility
1:58 AM
Wed, Jul 1
79 °FClear.5 mph75%30.11 "Hg10 mi
12:58 AM78 °FClear.7 mph72%30.12 "Hg10 mi
11:58 PM
Tue, Jun 30
81 °FClear.9 mph67%30.10 "Hg10 mi
10:58 PM79 °FClear.6 mph84%30.14 "Hg10 mi
9:58 PM80 °FClear.7 mph83%30.12 "Hg10 mi
8:58 PM81 °FSunny.9 mph78%30.07 "Hg10 mi
7:58 PM82 °FPassing clouds.13 mph84%30.08 "Hg10 mi
6:58 PM84 °FSunny.10 mph75%30.05 "Hg10 mi
5:58 PM89 °FSunny.12 mph64%30.05 "Hg10 mi
4:58 PM89 °FSunny.8 mph64%30.05 "Hg10 mi
3:58 PM94 °FSunny.9 mph50%30.04 "Hg10 mi
2:58 PM92 °FSunny.8 mph52%30.06 "Hg10 mi
1:58 PM91 °FPassing clouds.9 mph53%30.09 "Hg10 mi
12:58 PM91 °FPassing clouds.9 mph54%30.11 "Hg10 mi
11:58 AM88 °FSunny.10 mph62%30.11 "Hg10 mi
10:58 AM86 °FSunny.12 mph71%30.13 "Hg10 mi
9:58 AM82 °FSunny.10 mph78%30.13 "Hg10 mi
8:58 AM80 °FSunny.9 mph82%30.12 "Hg10 mi
7:58 AM77 °FSunny.12 mph88%30.11 "Hg10 mi
6:58 AM75 °FClear.6 mph91%30.10 "Hg10 mi
5:58 AM75 °FClear.9 mph89%30.09 "Hg10 mi
4:58 AM75 °FClear.10 mph91%30.09 "Hg10 mi
3:58 AM75 °FClear.10 mph93%30.06 "Hg10 mi
Weather by CustomWeather, © 2015

See weather overviewHow to use our weather pages